Flag for Estonia Weather past 2 weeks in Tallinn, Estonia

Now
61 °F

Sunny.


Feels Like: 61 °F
Forecast: 55 / 56 °F
Wind: 7 mph from Southeast

Location: Tallinn

Current Time: Sep 1, 2015 at 6:09:20 PM

Latest Report: Sep 1, 2015 at 5:20 PM


Visibility: 10 mi

Pressure: 29.89 "Hg

Humidity: 77%

Dew point: 54 °F

Location of TallinnLocation

Historic Weather in Tallinn — Graph

°F

Tallinn temperature yesterday

Maximum temperature yesterday: 68 °F (at 1:20 PM)
Minimum temperature yesterday: 46 °F (at 6:20 AM)
Average temperature yesterday: 59 °F

Past Weeks' High & Low Weather Summary

 TemperatureHumidityPressure
High82 °F (Aug 25, 2:50 PM)100% (Aug 21, 1:50 AM)30.45 "Hg (Aug 21, 1:50 AM)
Low43 °F (Aug 19, 5:50 AM)33% (Aug 20, 1:50 PM)29.65 "Hg (Aug 28, 10:50 AM)
Average61 °F77%30.14 "Hg
* Reported Aug 17 4:20 PM — Sep 1 4:50 PM, Tallinn, Weather by CustomWeather, © 2015

Note: Actual official high and low records may vary slightly from our data, if they occured in-between our weather recording intervals... More about our weather records

Advertising

Tallinn weather history for previous 24 hours

 ConditionsComfort  
Time TempWeatherWind HumidityBarometerVisibility
4:50 PM
Tue, Sep 1
59 °FSunny.8 mph77%29.92 "Hg10 mi
4:20 PM61 °FSunny.7 mph77%29.92 "Hg10 mi
3:50 PM61 °FSunny.6 mph83%29.92 "Hg10 mi
3:20 PM61 °FSprinkles. Passing clouds.5 mph83%29.92 "HgN/A
2:50 PM61 °FSprinkles. Passing clouds.7 mph83%29.92 "HgN/A
2:20 PM61 °FSprinkles. Passing clouds.7 mph83%29.92 "HgN/A
1:50 PM61 °FSunny.5 mph88%29.92 "Hg10 mi
1:20 PM61 °FPassing clouds.5 mph88%29.95 "HgN/A
12:50 PM61 °FScattered clouds.3 mph83%29.95 "HgN/A
12:20 PM61 °FPassing clouds.3 mph83%29.95 "HgN/A
11:50 AM59 °FScattered clouds.5 mph88%29.95 "HgN/A
11:20 AM59 °FPassing clouds.5 mph88%29.95 "HgN/A
10:50 AM59 °FScattered clouds.5 mph88%29.95 "HgN/A
10:20 AM59 °FScattered clouds.5 mph88%29.95 "HgN/A
9:50 AM57 °FScattered clouds.5 mph94%29.95 "HgN/A
9:20 AM57 °FSunny.3 mph94%29.95 "Hg10 mi
8:50 AM55 °FSunny.3 mph100%29.95 "Hg10 mi
8:20 AM54 °FSunny.3 mph100%29.95 "Hg10 mi
7:50 AM54 °FSunny.5 mph100%29.95 "Hg10 mi
6:20 AM54 °FLight fog.3 mph94%29.98 "HgN/A
5:50 AM52 °FClear.No wind100%29.98 "Hg10 mi
5:20 AM52 °FClear.No wind100%29.98 "Hg10 mi
4:50 AM52 °FClear.No wind100%30.01 "Hg10 mi
4:20 AM52 °FClear.No wind100%30.01 "Hg10 mi
3:50 AM54 °FClear.No wind94%30.01 "Hg10 mi
3:20 AM54 °FClear.No wind94%30.01 "Hg10 mi
2:50 AM52 °FLight fog.2 mph100%30.01 "HgN/A
2:20 AM50 °FLight fog.No wind100%30.01 "HgN/A
1:50 AM54 °FLight fog.No wind94%30.04 "HgN/A
1:20 AM54 °FLight fog.No wind94%30.04 "HgN/A
12:20 AM54 °FClear.3 mph100%30.04 "Hg10 mi
11:50 PM
Mon, Aug 31
54 °FClear.No wind100%30.04 "Hg10 mi
11:20 PM55 °FLight fog.No wind94%30.04 "HgN/A
10:50 PM55 °FLight fog.No wind100%30.04 "HgN/A
10:20 PM55 °FClear.No wind100%30.04 "Hg10 mi
9:50 PM57 °FClear.No wind94%30.04 "Hg10 mi
9:20 PM57 °FSunny.No wind94%30.04 "Hg10 mi
8:50 PM59 °FSunny.2 mph88%30.04 "Hg10 mi
8:20 PM61 °FSunny.No wind83%30.04 "Hg10 mi
7:50 PM63 °FSunny.No wind77%30.04 "Hg10 mi
7:20 PM64 °FPassing clouds.1 mph73%30.04 "HgN/A
6:50 PM66 °FPassing clouds.6 mph64%30.04 "HgN/A
6:20 PM66 °FPassing clouds.2 mph64%30.04 "HgN/A
Weather by CustomWeather, © 2015

See weather overviewHow to use our weather pages